User: anonymous   Login
Location: NJAA Observatory
(40.6819°N, 74.8979°W)
Time: 19:25:28
(UTC-04:00)
Language:

ALOS - Orbit

View from above orbital plane
View from above orbital plane
View from above satellite
View from above satellite

Ground track
Ground track

The orbit data is extracted from the following two-line orbital elements,

1 28931U 06002A   15111.19385736  .00001305  00000-0  27032-3 0  9998
2 28931 097.9393 162.8595 0000463 078.8901 281.2353 14.61799921492319
Epoch (UTC): 21 April 2015 04:39:09
Eccentricity: 0.0000463
inclination: 97.9393°
perigee height: 687 km
apogee height: 688 km
right ascension of ascending node: 162.8595°
argument of perigee: 78.8901°
revolutions per day: 14.61799921
mean anomaly at epoch: 281.2353°
orbit number at epoch: 49231

The dashed part of the orbit path shows where the satellite is in the earth's shadow,  

DLR